Location: Fort Frances
(48.6170°N, 93.4170°W)
Time: 19:02:07
(UTC-05:00)

Daily predictions for brighter satellites

Satellite Brightness Start Highest point End
(mag) Time Altitude Azimuth Time Altitude Azimuth Time Altitude Azimuth
Cosmos 2233 Rocket 4.1 19:22:25 10° S 19:28:44 87° E 19:35:06 10° N
Cosmos 1680 Rocket 4.3 19:23:41 10° SW 19:28:56 58° WNW 19:34:13 10° NNE
ATLAS CENTAUR R/B 3.2 19:26:45 10° NW 19:30:39 34° WSW 19:34:14 10° S
SKYMED 2 3.6 19:26:50 10° NNE 19:31:13 82° ESE 19:35:33 10° SSW
NOSS 3-2 (A) 3.9 19:25:45 10° S 19:31:29 44° ESE 19:37:44 10° NE
SL-16 R/B 2.4 19:26:08 10° S 19:31:35 49° ESE 19:37:04 10° NE
FREGAT/IRIS 2.9 19:30:17 10° SSE 19:33:18 50° ENE 19:36:19 10° N
Cosmos 1408 Rocket 3.8 19:31:23 10° N 19:35:37 47° ENE 19:39:48 10° SSE
USA 238 DEB 3.9 19:30:40 10° SW 19:37:44 88° NW 19:44:50 10° NE
USA 238 3.9 19:30:46 10° SW 19:37:50 88° NW 19:44:57 10° NE
Cosmos 1437 3.6 19:34:49 10° NNW 19:38:02 55° W 19:41:15 10° S
TELKOM 3 3.3 19:36:02 10° WNW 19:39:20 85° SSW 19:41:33 11° ESE
Cosmos 1378 3.1 19:39:27 10° N 19:43:13 89° NE 19:46:57 10° S
Cosmos 1544 4.5 19:41:09 10° SE 19:43:52 19° E 19:46:35 10° NE
METEOR-M 4.1 19:39:22 10° SSE 19:44:38 66° ENE 19:49:58 10° N
Cosmos 1420 Rocket 4.5 19:40:46 10° NNW 19:45:49 43° ENE 19:50:52 10° SE
Cosmos 1953 3.0 19:45:17 10° SSE 19:48:51 33° E 19:52:27 10° NNE
Cosmos 2219 Rocket 3.5 19:43:34 10° SW 19:48:56 44° NW 19:54:21 10° NNE
Meteor 1-28 Rocket 3.1 19:46:28 10° NNE 19:50:11 62° E 19:53:52 10° S
Okean 3 Rocket 4.4 19:46:26 10° NNW 19:50:56 59° W 19:55:23 10° S
Cosmos 2278 Rocket 4.4 19:47:09 10° NW 19:51:56 29° WSW 19:56:41 10° SSW
Cosmos 1805 3.8 19:50:01 10° SSE 19:53:36 36° E 19:57:15 10° NNE
H-2A R/B 3.8 19:50:34 10° SE 19:53:55 28° ENE 19:57:14 10° N
FENGYUN 3A 4.0 19:50:54 10° SE 19:55:59 45° ENE 20:01:06 10° N
ASTEX 1 4.2 19:51:59 10° NNE 19:56:13 28° E 20:00:25 10° SE
Resurs 1-3 3.7 19:53:07 10° SSE 19:57:25 57° ENE 20:01:45 10° N
Resurs 01 Rocket 1.6 19:53:51 10° SSE 19:58:18 74° ENE 20:02:45 10° N
Cosmos 1346 3.6 19:56:01 10° N 19:58:48 35° ENE 20:01:23 11° SE
Meteor 1-22 Rocket 4.2 19:57:55 10° SSW 20:03:15 81° WNW 20:08:35 10° N
Cosmos 1743 Rocket 3.9 19:59:42 10° N 20:04:01 46° ENE 20:08:16 10° SSE
ERBS 4.1 20:02:06 10° NW 20:05:01 24° NNE 20:07:17 14° ENE
CENTAUR R/B 3.7 20:02:24 10° SSE 20:06:27 18° ESE 20:10:47 10° ENE
Spot 2 Rocket 3.5 20:01:59 10° SSE 20:07:01 90° SW 20:12:06 10° NNW
Helios 1A 2.9 20:04:54 10° SSE 20:09:07 85° ENE 20:13:22 10° NNW
NOSS 3-2 (C) 3.5 20:03:39 10° SSW 20:09:41 61° ESE 20:16:19 10° NE
Cosmos 2369 Rocket 2.7 20:05:03 10° NNW 20:10:23 41° NE 20:14:17 17° ESE
Cosmos 1943 Rocket 3.5 20:09:23 10° N 20:13:55 24° NE 20:16:39 17° E
Cosmos 1943 4.3 20:11:13 10° SE 20:15:12 20° E 20:19:11 10° NE
Cosmos 1470 3.7 20:13:51 15° SE 20:16:09 26° E 20:19:26 10° NNE
Envisat 4.2 20:16:19 19° E 20:18:09 23° ENE 20:22:06 10° N
Nadezhda 4 Rocket 4.0 20:12:17 10° N 20:18:36 69° ENE 20:24:48 10° SSE
Cosmos 1603 4.0 20:13:31 10° S 20:18:57 46° ESE 20:24:26 10° NE
COSMO-SKYMED 1 4.4 20:15:12 10° N 20:19:10 35° WNW 20:23:05 10° SW
GP-B 3.9 20:17:54 10° NNE 20:21:50 30° E 20:23:33 23° ESE
Cosmos 482 Debris 4.3 20:21:45 10° WNW 20:23:53 38° N 20:25:10 24° NE
Cosmos 1733 4.1 20:24:29 27° E 20:24:37 27° E 20:27:54 10° NNE
Cosmos 1092 Rocket 4.0 20:19:25 10° N 20:25:35 58° ENE 20:31:39 10° SSE
Cosmos 1758 3.4 20:27:03 10° S 20:31:08 85° W 20:35:17 10° N
Cosmos 2333 Rocket 4.1 20:27:45 10° WSW 20:32:48 31° NW 20:37:53 10° NNE
Meteor 2-12 Rocket 4.4 20:27:48 10° S 20:33:58 82° E 20:40:10 10° NNE
Cosmos 1674 2.6 20:30:14 10° N 20:34:07 67° E 20:36:36 21° SSE
Aureole 2 Rocket 4.3 20:32:17 10° SW 20:36:27 42° WNW 20:40:29 10° N
Cosmos 2026 Rocket 4.3 20:34:10 10° N 20:39:58 43° ENE 20:42:57 26° SE
USA 215 3.2 20:34:03 10° ENE 20:40:33 63° SE 20:47:01 10° SW
Meteor 1-29 3.3 20:40:42 10° N 20:44:13 67° WNW 20:47:42 10° SSW
Cosmos 1634 Rocket 4.2 20:38:54 10° SSE 20:44:50 48° E 20:50:46 10° NNE
Helios 1B rocket 3.0 20:42:02 10° N 20:46:06 60° WNW 20:50:09 10° SSW
H-2A R/B 3.6 20:48:55 22° NE 20:48:55 22° NE 20:51:59 10° NNE
ALOS 2.6 20:44:01 10° S 20:48:39 66° WSW 20:53:19 10° NNW
SeaSat 1 2.8 20:49:43 10° NE 20:54:24 41° ESE 20:59:03 10° S
Cosmos 2237 Rocket 4.4 20:51:23 10° W 20:56:02 25° NW 21:00:42 10° N
ERS-1 Rocket 3.2 20:55:08 40° ESE 20:56:28 51° ENE 21:01:20 10° N
CZ-4C R/B 3.8 20:51:51 10° W 20:57:03 35° NNW 21:02:56 10° NE
Cosmos 1110 Rocket 4.2 20:51:57 10° NNW 20:57:09 54° ENE 20:58:35 41° ESE
YAOGAN 11 4.2 20:57:08 47° E 20:57:30 49° ENE 21:01:40 10° N
Cosmos 1328 3.7 20:54:17 10° N 20:58:15 63° E 20:58:32 60° ESE
Cosmos 1939 Rocket 3.4 20:58:49 40° NE 20:58:49 40° NE 21:02:14 10° N
ATLAS 5 CENTAUR R/B 2.0 20:54:13 10° SW 20:59:05 78° NW 21:04:28 10° NE
CZ-4B DEB 4.3 20:57:05 14° SSW 20:59:36 37° W 21:02:41 10° NNW
Cosmos-2242 4.0 20:56:32 10° SSW 21:00:47 49° WNW 21:05:05 10° N
Cosmos 2195 Rocket 4.4 20:55:30 10° N 21:01:50 70° ENE 21:05:32 26° SSE
USA 186 3.4 21:04:10 22° NW 21:04:10 22° NW 21:05:16 10° NNW
ATLAS 3B R/B 4.4 20:57:41 10° W 21:04:11 31° NNW 21:10:28 10° NE
Cosmos 2221 4.3 21:08:46 19° NE 21:08:46 19° NE 21:10:14 10° NNE
SL-14 R/B 3.9 21:04:29 10° N 21:07:42 44° NE 21:07:42 44° NE
Cosmos 2151 2.8 21:05:11 10° N 21:09:26 82° E 21:09:57 67° SSE
Cosmos 1500 Rocket 4.4 21:09:04 10° NNW 21:13:22 51° W 21:16:35 17° SSW
SL-16 R/B 3.8 21:10:46 10° WSW 21:15:55 34° NW 21:21:06 10° NNE
Cosmos 1842 Rocket 3.8 21:11:54 10° SSW 21:16:12 68° WNW 21:20:34 10° N
Cosmos 2058 3.1 21:12:58 10° N 21:16:28 57° NNE 21:16:28 57° NNE
Cosmos 839 Rocket 4.4 21:13:48 10° NW 21:21:47 74° WSW 21:24:46 36° SSE
NOSS 3-2 (A) 4.3 21:16:11 10° WSW 21:22:17 51° NW 21:29:02 10° NE
Cosmos 1656 Rocket 4.5 21:17:49 10° NNW 21:22:45 33° NE 21:22:45 33° NE
ARGOS 4.2 21:24:28 30° NE 21:24:28 30° NE 21:28:34 10° N
Cosmos 1627 Rocket 4.5 21:20:03 10° N 21:26:16 82° W 21:29:33 30° S
SL-24 R/B - RUBIN 2 4.4 21:20:36 10° NW 21:27:23 83° NE 21:28:58 55° SE
Terra 4.1 21:31:26 12° NNE 21:31:26 12° NNE 21:32:20 10° NNE
Cosmos 1331 Rocket 3.9 21:25:59 10° NNW 21:31:20 86° ENE 21:31:51 73° SE
ERBS 4.3 21:38:48 10° NW 21:40:42 30° NW 21:40:42 30° NW
Cosmos 1302 Rocket 4.1 21:37:21 10° NNW 21:42:02 62° NNE 21:42:02 62° NNE
Cosmos 2180 Rocket 4.4 21:46:50 67° ENE 21:46:50 67° ENE 21:52:37 10° NNE
Cosmos 2369 Rocket 3.3 21:49:11 10° NW 21:54:25 39° WSW 21:56:06 32° SW
CENTAUR R/B 2.4 21:49:45 10° SW 21:55:57 85° SE 22:03:01 10° NE
Envisat 3.4 21:56:31 57° WSW 21:56:48 58° W 22:01:50 10° NNW
Cosmos 1943 Rocket 2.2 21:52:40 10° NNW 21:58:11 76° W 21:58:11 76° W
Cosmos 1943 3.3 21:53:01 10° SW 21:58:39 73° WNW 22:04:18 10° NNE
H-2A R/B 3.6 22:03:03 24° NNE 22:03:03 24° NNE 22:05:32 10° N
SPOT 5 4.0 22:04:14 35° NNW 22:04:14 35° NNW 22:06:48 10° NNW
Sich 1 4.4 22:00:02 10° NNW 22:02:37 35° NNW 22:02:37 35° NNW
BREEZE-M DEB (TANK) 4.0 22:00:49 10° W 22:07:42 41° WSW 22:07:42 41° WSW
Cosmos 2279 Rocket 4.1 22:07:31 59° SW 22:08:37 73° W 22:14:51 10° N
MetOp-B 4.5 22:11:30 62° NNW 22:11:30 62° NNW 22:15:59 10° NNW
Meteor 2-1 Rocket 4.5 22:13:43 68° W 22:13:47 68° WNW 22:19:40 10° N
Cosmos 2266 Rocket 4.2 22:16:21 10° N 22:21:52 68° N 22:21:52 68° N
USA 215 3.6 22:20:59 36° NE 22:23:34 59° NNW 22:29:58 10° W
H-2A R/B 3.9 22:26:03 31° NW 22:26:03 31° NW 22:28:38 10° NNW
SeaSat 1 3.8 22:27:21 10° NNE 22:31:53 37° NW 22:36:23 10° WSW
ATLAS 5 CENTAUR R/B 4.0 22:40:30 10° WNW 22:44:41 25° NNW 22:47:47 16° NNE
BREEZE-M DEB (TANK) 4.5 22:29:55 10° W 22:45:27 76° WNW 22:45:27 76° WNW
Terra 4.2 23:10:19 19° NNW 23:10:19 19° NNW 23:11:38 10° NNW
Cosmos 1980 Rocket 4.3 23:21:53 10° NNW 23:24:14 20° N 23:24:14 20° N
H-2A R/B 4.5 23:43:42 18° NW 23:43:42 18° NW 23:45:07 10° NNW
CENTAUR R/B 4.0 23:41:32 10° W 23:47:27 35° NNW 23:54:06 10° NE
